Terminal Aerodrome Forecast
Issued by NWS

Home | Current Version | Previous Version | Text Only | Print | Product List | Glossary On
Versions: 1 2 3 4 5 6 7 8 9 10 11 12 13 14 15 16 17 18 19 20 21 22 23 24 25 26 27 28 29 30 31 32 33 34 35 36 37 38 39 40 41 42 43 44 45 46 47 48 49 50
000
FTUS44 KLIX 200847 AAA
TAFASD
TAF AMD
KASD 200847Z 2009/2106 17004KT P6SM FEW050
      TEMPO 2009/2010 1SM BR BKN005
     FM201000 VRB03KT 2SM BR BKN005
     FM201500 22006KT P6SM BKN025
     FM201800 21007KT P6SM SCT035 BKN120
     FM210200 20006KT P6SM SCT035 BKN060=

USA.gov is the U.S. government's official web portal to all federal, state and local government web resources and services.